Time,TemperatureF,DewpointF,PressureIn,WindDirection,WindDirectionDegrees,WindSpeedMPH,WindSpeedGustMPH,Humidity,HourlyPrecipIn,Conditions,Clouds,dailyrainin,SoftwareType,DateUTC
2013-07-23 00:02:00,88.0,72.0,29.90,NNW,333,3.0,6.0,59,0.00,,,0.00,,2013-07-23 05:02:00,
2013-07-23 00:11:00,88.0,72.0,29.90,NNW,333,3.0,6.0,59,0.00,,,0.00,,2013-07-23 05:11:00,
2013-07-23 00:22:00,88.0,72.0,29.90,NNE,26,1.0,8.0,60,0.00,,,0.00,,2013-07-23 05:22:00,
2013-07-23 00:33:00,88.0,73.0,29.91,NNE,24,2.0,8.0,61,0.00,,,0.00,,2013-07-23 05:33:00,
2013-07-23 00:43:00,88.0,73.0,29.91,NNE,24,2.0,8.0,61,0.00,,,0.00,,2013-07-23 05:43:00,
2013-07-23 00:52:00,87.0,72.0,29.91,West,276,1.0,8.0,62,0.00,,,0.00,,2013-07-23 05:52:00,
2013-07-23 01:01:00,87.0,73.0,29.91,NE,43,2.0,9.0,63,0.00,,,0.00,,2013-07-23 06:01:00,
2013-07-23 01:11:00,87.0,73.0,29.91,NE,43,2.0,9.0,63,0.00,,,0.00,,2013-07-23 06:11:00,
2013-07-23 01:22:00,87.0,73.0,29.91,NNE,24,3.0,12.0,63,0.00,,,0.00,,2013-07-23 06:22:00,
2013-07-23 01:33:00,86.0,72.0,29.91,NW,316,3.0,8.0,64,0.00,,,0.00,,2013-07-23 06:33:00,
2013-07-23 01:42:00,86.0,72.0,29.91,NW,316,3.0,8.0,64,0.00,,,0.00,,2013-07-23 06:42:00,
2013-07-23 01:52:00,86.0,73.0,29.90,East,89,1.0,10.0,65,0.00,,,0.00,,2013-07-23 06:52:00,
2013-07-23 02:01:00,86.0,73.0,29.90,NE,49,1.0,11.0,65,0.00,,,0.00,,2013-07-23 07:01:00,
2013-07-23 02:11:00,86.0,73.0,29.90,NE,49,1.0,11.0,65,0.00,,,0.00,,2013-07-23 07:11:00,
2013-07-23 02:22:00,86.0,73.0,29.90,NE,49,1.0,11.0,65,0.00,,,0.00,,2013-07-23 07:22:00,
2013-07-23 02:33:00,85.0,72.0,29.91,NW,314,4.0,9.0,66,0.00,,,0.00,,2013-07-23 07:33:00,
2013-07-23 02:42:00,85.0,72.0,29.91,NW,314,4.0,9.0,66,0.00,,,0.00,,2013-07-23 07:42:00,
2013-07-23 02:52:00,85.0,72.0,29.91,NE,40,4.0,13.0,65,0.00,,,0.00,,2013-07-23 07:52:00,
2013-07-23 03:01:00,85.0,72.0,29.91,NE,40,4.0,13.0,65,0.00,,,0.00,,2013-07-23 08:01:00,
2013-07-23 03:11:00,85.0,72.0,29.91,NE,40,4.0,13.0,65,0.00,,,0.00,,2013-07-23 08:11:00,
2013-07-23 03:21:00,84.0,72.0,29.91,NW,326,2.0,5.0,67,0.00,,,0.00,,2013-07-23 08:21:00,
2013-07-23 03:33:00,84.0,72.0,29.90,WNW,287,2.0,8.0,68,0.00,,,0.00,,2013-07-23 08:33:00,
2013-07-23 03:43:00,84.0,72.0,29.90,WNW,287,2.0,8.0,68,0.00,,,0.00,,2013-07-23 08:43:00,
2013-07-23 03:52:00,83.0,72.0,29.90,NE,34,2.0,9.0,69,0.00,,,0.00,,2013-07-23 08:52:00,
2013-07-23 04:01:00,83.0,73.0,29.90,West,276,3.0,9.0,71,0.00,,,0.00,,2013-07-23 09:01:00,
2013-07-23 04:11:00,83.0,73.0,29.90,West,276,3.0,9.0,71,0.00,,,0.00,,2013-07-23 09:11:00,
2013-07-23 04:22:00,83.0,73.0,29.90,NNW,344,3.0,10.0,72,0.00,,,0.00,,2013-07-23 09:22:00,
2013-07-23 04:33:00,82.0,72.0,29.90,NNW,339,2.0,9.0,73,0.00,,,0.00,,2013-07-23 09:33:00,
2013-07-23 04:42:00,82.0,72.0,29.90,NNW,339,2.0,9.0,73,0.00,,,0.00,,2013-07-23 09:42:00,
2013-07-23 04:53:00,82.0,73.0,29.90,NE,37,2.0,7.0,74,0.00,,,0.00,,2013-07-23 09:53:00,
2013-07-23 05:02:00,82.0,73.0,29.90,WNW,293,2.0,8.0,74,0.00,,,0.00,,2013-07-23 10:02:00,
2013-07-23 05:11:00,82.0,73.0,29.90,WNW,293,2.0,8.0,74,0.00,,,0.00,,2013-07-23 10:11:00,
2013-07-23 05:22:00,81.0,73.0,29.91,NNE,22,2.0,6.0,76,0.00,,,0.00,,2013-07-23 10:22:00,
2013-07-23 05:32:00,81.0,73.0,29.91,North,354,1.0,7.0,77,0.00,,,0.00,,2013-07-23 10:32:00,
2013-07-23 05:44:00,81.0,73.0,29.91,North,354,1.0,7.0,77,0.00,,,0.00,,2013-07-23 10:44:00,
2013-07-23 05:52:00,81.0,73.0,29.91,West,278,1.0,9.0,77,0.00,,,0.00,,2013-07-23 10:52:00,
2013-07-23 06:01:00,81.0,73.0,29.91,NE,51,1.0,9.0,78,0.00,,,0.00,,2013-07-23 11:01:00,
2013-07-23 06:12:00,81.0,73.0,29.91,NE,51,1.0,9.0,78,0.00,,,0.00,,2013-07-23 11:12:00,
2013-07-23 06:22:00,80.0,73.0,29.91,ESE,116,1.0,6.0,79,0.00,,,0.00,,2013-07-23 11:22:00,
2013-07-23 06:32:00,80.0,73.0,29.92,NNE,32,1.0,10.0,80,0.00,,,0.00,,2013-07-23 11:32:00,
2013-07-23 06:43:00,80.0,73.0,29.92,NNE,32,1.0,10.0,80,0.00,,,0.00,,2013-07-23 11:43:00,
2013-07-23 06:52:00,80.0,74.0,29.92,WNW,295,3.0,9.0,81,0.00,,,0.00,,2013-07-23 11:52:00,
2013-07-23 07:02:00,80.0,74.0,29.92,ENE,77,2.0,10.0,81,0.00,,,0.00,,2013-07-23 12:02:00,
2013-07-23 07:11:00,80.0,74.0,29.92,ENE,77,2.0,10.0,81,0.00,,,0.00,,2013-07-23 12:11:00,
2013-07-23 07:22:00,80.0,74.0,29.92,WNW,302,4.0,10.0,82,0.00,,,0.00,,2013-07-23 12:22:00,
2013-07-23 07:33:00,80.0,74.0,29.92,East,94,2.0,9.0,83,0.00,,,0.00,,2013-07-23 12:33:00,
2013-07-23 07:43:00,80.0,74.0,29.92,East,94,2.0,9.0,83,0.00,,,0.00,,2013-07-23 12:43:00,
2013-07-23 08:01:00,80.0,74.0,29.93,NE,34,3.0,8.0,83,0.00,,,0.00,,2013-07-23 13:01:00,
2013-07-23 08:11:00,80.0,74.0,29.93,NE,34,3.0,8.0,83,0.00,,,0.00,,2013-07-23 13:11:00,
2013-07-23 08:22:00,80.0,74.0,29.93,North,1,3.0,10.0,83,0.00,,,0.00,,2013-07-23 13:22:00,
2013-07-23 08:32:00,80.0,74.0,29.93,North,1,3.0,10.0,83,0.00,,,0.00,,2013-07-23 13:32:00,
2013-07-23 08:43:00,80.0,74.0,29.93,North,1,3.0,10.0,83,0.00,,,0.00,,2013-07-23 13:43:00,
2013-07-23 08:52:00,80.0,74.0,29.93,North,1,3.0,10.0,83,0.00,,,0.00,,2013-07-23 13:52:00,
2013-07-23 09:02:00,82.0,75.0,29.94,NW,325,2.0,10.0,80,0.00,,,0.00,,2013-07-23 14:02:00,
2013-07-23 09:12:00,82.0,75.0,29.94,NW,325,2.0,10.0,80,0.00,,,0.00,,2013-07-23 14:12:00,
2013-07-23 09:22:00,82.0,75.0,29.95,SE,124,4.0,10.0,79,0.00,,,0.00,,2013-07-23 14:22:00,
2013-07-23 09:32:00,83.0,75.0,29.95,NE,41,1.0,8.0,78,0.00,,,0.00,,2013-07-23 14:32:00,
2013-07-23 09:44:00,83.0,75.0,29.95,NE,41,1.0,8.0,78,0.00,,,0.00,,2013-07-23 14:44:00,
2013-07-23 09:53:00,84.0,76.0,29.95,NNE,32,2.0,6.0,77,0.00,,,0.00,,2013-07-23 14:53:00,
2013-07-23 10:03:00,85.0,76.0,29.95,NNE,33,3.0,7.0,75,0.00,,,0.00,,2013-07-23 15:03:00,
2013-07-23 10:11:00,85.0,76.0,29.95,NNE,33,3.0,7.0,75,0.00,,,0.00,,2013-07-23 15:11:00,
2013-07-23 10:24:00,85.0,76.0,29.94,NNE,24,1.0,6.0,74,0.00,,,0.00,,2013-07-23 15:24:00,
2013-07-23 10:32:00,86.0,76.0,29.95,NNW,345,2.0,6.0,73,0.00,,,0.00,,2013-07-23 15:32:00,
2013-07-23 10:43:00,86.0,76.0,29.95,NNW,345,2.0,6.0,73,0.00,,,0.00,,2013-07-23 15:43:00,
2013-07-23 10:52:00,87.0,77.0,29.95,ENE,63,1.0,6.0,72,0.00,,,0.00,,2013-07-23 15:52:00,
2013-07-23 11:01:00,88.0,77.0,29.95,NNE,33,2.0,5.0,70,0.00,,,0.00,,2013-07-23 16:01:00,
2013-07-23 11:12:00,88.0,77.0,29.95,NNE,33,2.0,5.0,70,0.00,,,0.00,,2013-07-23 16:12:00,
2013-07-23 11:22:00,88.0,77.0,29.95,NNW,335,0.0,7.0,69,0.00,,,0.00,,2013-07-23 16:22:00,
2013-07-23 11:33:00,89.0,77.0,29.95,NE,54,1.0,5.0,68,0.00,,,0.00,,2013-07-23 16:33:00,
2013-07-23 11:43:00,89.0,77.0,29.95,NE,54,1.0,5.0,68,0.00,,,0.00,,2013-07-23 16:43:00,
2013-07-23 11:52:00,89.0,77.0,29.94,NNE,19,2.0,9.0,67,0.00,,,0.00,,2013-07-23 16:52:00,
2013-07-23 12:02:00,90.0,77.0,29.93,NW,318,2.0,7.0,66,0.00,,,0.00,,2013-07-23 17:02:00,
2013-07-23 12:11:00,90.0,77.0,29.93,NW,318,2.0,7.0,66,0.00,,,0.00,,2013-07-23 17:11:00,
2013-07-23 12:21:00,91.0,77.0,29.93,North,6,3.0,7.0,64,0.00,,,0.00,,2013-07-23 17:21:00,
2013-07-23 12:32:00,91.0,77.0,29.93,NNE,31,2.0,8.0,64,0.00,,,0.00,,2013-07-23 17:32:00,
2013-07-23 12:42:00,91.0,77.0,29.93,NNE,31,2.0,8.0,64,0.00,,,0.00,,2013-07-23 17:42:00,
2013-07-23 12:56:00,91.0,77.0,29.92,NNE,25,2.0,7.0,63,0.00,,,0.00,,2013-07-23 17:56:00,
2013-07-23 13:02:00,92.0,77.0,29.92,North,8,2.0,9.0,62,0.00,,,0.00,,2013-07-23 18:02:00,
2013-07-23 13:12:00,92.0,77.0,29.92,North,8,2.0,9.0,62,0.00,,,0.00,,2013-07-23 18:12:00,
2013-07-23 13:24:00,92.0,77.0,29.92,NW,322,3.0,8.0,61,0.00,,,0.00,,2013-07-23 18:24:00,
2013-07-23 13:33:00,93.0,77.0,29.91,North,4,1.0,9.0,60,0.00,,,0.00,,2013-07-23 18:33:00,
2013-07-23 13:46:00,93.0,77.0,29.91,North,4,1.0,9.0,60,0.00,,,0.00,,2013-07-23 18:46:00,
2013-07-23 13:56:00,94.0,77.0,29.91,NE,43,3.0,7.0,59,0.00,,,0.00,,2013-07-23 18:56:00,
2013-07-23 14:03:00,94.0,77.0,29.91,NE,56,3.0,7.0,58,0.00,,,0.00,,2013-07-23 19:03:00,
2013-07-23 14:14:00,94.0,77.0,29.91,NE,56,3.0,7.0,58,0.00,,,0.00,,2013-07-23 19:14:00,
2013-07-23 14:33:00,95.0,76.0,29.89,NNE,15,3.0,7.0,55,0.00,,,0.00,,2013-07-23 19:33:00,
2013-07-23 14:46:00,95.0,76.0,29.89,NNE,15,3.0,7.0,55,0.00,,,0.00,,2013-07-23 19:46:00,
2013-07-23 14:55:00,96.0,77.0,29.88,NE,43,3.0,9.0,55,0.00,,,0.00,,2013-07-23 19:55:00,
2013-07-23 15:03:00,96.0,77.0,29.88,NNW,344,3.0,10.0,54,0.00,,,0.00,,2013-07-23 20:03:00,
2013-07-23 15:12:00,96.0,77.0,29.88,NNW,344,3.0,10.0,54,0.00,,,0.00,,2013-07-23 20:12:00,
2013-07-23 15:22:00,97.0,77.0,29.87,NE,46,3.0,11.0,53,0.00,,,0.00,,2013-07-23 20:22:00,
2013-07-23 15:34:00,97.0,76.0,29.86,NE,51,4.0,12.0,52,0.00,,,0.00,,2013-07-23 20:34:00,
2013-07-23 15:44:00,97.0,76.0,29.86,NE,51,4.0,12.0,52,0.00,,,0.00,,2013-07-23 20:44:00,
2013-07-23 16:04:00,98.0,76.0,29.85,NE,53,4.0,9.0,50,0.00,,,0.00,,2013-07-23 21:04:00,
2013-07-23 16:13:00,98.0,76.0,29.85,NE,53,4.0,9.0,50,0.00,,,0.00,,2013-07-23 21:13:00,
2013-07-23 16:23:00,98.0,74.0,29.84,NNW,339,4.0,8.0,47,0.00,,,0.00,,2013-07-23 21:23:00,
2013-07-23 16:34:00,98.0,74.0,29.84,NW,304,4.0,11.0,46,0.00,,,0.00,,2013-07-23 21:34:00,
2013-07-23 16:46:00,98.0,74.0,29.84,NW,304,4.0,11.0,46,0.00,,,0.00,,2013-07-23 21:46:00,
2013-07-23 16:56:00,98.0,74.0,29.83,NNW,329,4.0,10.0,47,0.00,,,0.00,,2013-07-23 21:56:00,
2013-07-23 17:04:00,99.0,75.0,29.83,NNW,343,2.0,9.0,46,0.00,,,0.00,,2013-07-23 22:04:00,
2013-07-23 17:12:00,99.0,75.0,29.83,NNW,343,2.0,9.0,46,0.00,,,0.00,,2013-07-23 22:12:00,
2013-07-23 17:23:00,99.0,75.0,29.83,ENE,58,3.0,8.0,47,0.00,,,0.00,,2013-07-23 22:23:00,
2013-07-23 17:33:00,99.0,76.0,29.83,NNW,343,0.0,5.0,48,0.00,,,0.00,,2013-07-23 22:33:00,
2013-07-23 17:44:00,99.0,76.0,29.83,NNW,343,0.0,5.0,48,0.00,,,0.00,,2013-07-23 22:44:00,
2013-07-23 17:59:00,98.0,74.0,29.82,SSW,204,1.0,10.0,47,0.00,,,0.00,,2013-07-23 22:59:00,
2013-07-23 18:12:00,97.0,75.0,29.82,NNW,332,3.0,10.0,49,0.00,,,0.00,,2013-07-23 23:12:00,
2013-07-23 18:24:00,97.0,74.0,29.81,ENE,61,2.0,8.0,48,0.00,,,0.00,,2013-07-23 23:24:00,
2013-07-23 18:34:00,97.0,73.0,29.80,North,354,6.0,12.0,46,0.00,,,0.00,,2013-07-23 23:34:00,
2013-07-23 18:58:00,96.0,73.0,29.79,ENE,60,2.0,11.0,48,0.00,,,0.00,,2013-07-23 23:58:00,
2013-07-23 19:05:00,96.0,72.0,29.79,NW,326,2.0,11.0,47,0.00,,,0.00,,2013-07-24 00:05:00,
2013-07-23 19:13:00,96.0,72.0,29.79,NW,326,2.0,11.0,47,0.00,,,0.00,,2013-07-24 00:13:00,
2013-07-23 19:34:00,95.0,72.0,29.79,NNE,13,6.0,10.0,47,0.00,,,0.00,,2013-07-24 00:34:00,
2013-07-23 19:57:00,94.0,70.0,29.79,NNE,29,5.0,10.0,46,0.00,,,0.00,,2013-07-24 00:57:00,
2013-07-23 20:03:00,94.0,71.0,29.79,NNW,332,1.0,10.0,47,0.00,,,0.00,,2013-07-24 01:03:00,
2013-07-23 20:12:00,94.0,71.0,29.79,NNW,332,1.0,10.0,47,0.00,,,0.00,,2013-07-24 01:12:00,
2013-07-23 20:24:00,94.0,69.0,29.80,NW,320,1.0,6.0,44,0.00,,,0.00,,2013-07-24 01:24:00,
2013-07-23 20:32:00,93.0,68.0,29.80,North,11,1.0,12.0,44,0.00,,,0.00,,2013-07-24 01:32:00,
2013-07-23 20:55:00,93.0,68.0,29.80,ENE,77,0.0,9.0,44,0.00,,,0.00,,2013-07-24 01:55:00,
2013-07-23 21:03:00,93.0,68.0,29.80,ENE,77,0.0,9.0,44,0.00,,,0.00,,2013-07-24 02:03:00,
2013-07-23 21:24:00,92.0,68.0,29.82,ENE,66,0.0,4.0,45,0.00,,,0.00,,2013-07-24 02:24:00,
2013-07-23 21:36:00,91.0,67.0,29.81,North,360,1.0,4.0,46,0.00,,,0.00,,2013-07-24 02:36:00,
2013-07-23 21:46:00,91.0,67.0,29.81,North,360,1.0,4.0,46,0.00,,,0.00,,2013-07-24 02:46:00,
2013-07-23 21:54:00,91.0,67.0,29.81,NE,40,2.0,7.0,45,0.00,,,0.00,,2013-07-24 02:54:00,
2013-07-23 22:02:00,91.0,67.0,29.82,ENE,63,0.0,7.0,45,0.00,,,0.00,,2013-07-24 03:02:00,
2013-07-23 22:12:00,91.0,67.0,29.82,ENE,63,0.0,7.0,45,0.00,,,0.00,,2013-07-24 03:12:00,
2013-07-23 22:23:00,91.0,67.0,29.82,ENE,72,1.0,6.0,45,0.00,,,0.00,,2013-07-24 03:23:00,
2013-07-23 22:44:00,90.0,66.0,29.83,East,82,1.0,6.0,46,0.00,,,0.00,,2013-07-24 03:44:00,